Retour au catalogue

STARLINK-4308

ActifCommunicationsSSO
NORAD 53061·PAYLOAD·🇺🇸 United States

Lancé Jul 11, 2022 depuis Vandenberg Space Force Base

Loading…

Prochains Passages (prochaines 24 heures)

TLE

FraisSource: CelesTrak SupGP

Époque: Sep 14, 2026, 21:22 UTC

1 53061C 22077U   26257.89076389  .00064766  00000+0  20106-2 0  2571
2 53061  97.2857  72.8155 0001509  94.9062 298.4282 15.33403812    14

Suivez STARLINK-4308 en temps réel avec AllMySat

Download on the App Store